Regional Weather Roundup
Issued by NWS

Home | Current Version | Previous Version | Graphics & Text | Print | Product List | Glossary On
Versions: 1 2 3 4 5 6 7 8 9 10 11 12 13 14 15 16 17 18 19 20 21 22 23 24 25 26 27 28 29 30 31 32 33 34 35 36 37 38 39 40 41 42 43 44 45 46 47 48 49 50
172
ASUS43 KTOP 060908
RWRKS

WEATHER ROUNDUP FOR KANSAS
NATIONAL WEATHER SERVICE GOODLAND KS
300 AM CST SAT FEB 06 2016

NOTE:  "FAIR" INDICATES FEW OR NO CLOUDS BELOW 12,000 FEET WITH NO
SIGNIFICANT WEATHER AND/OR OBSTRUCTIONS TO VISIBILITY.

KSZ001>006-013>018-027>032-041>047-061000-
NORTHWEST KANSAS

CITY           SKY/WX    TMP DP  RH WIND       PRES   REMARKS
GOODLAND       CLOUDY    13   6  74 W9        30.28F
HAYS           CLEAR     23  10  58 NW8       30.31S
HILL CITY      CLEAR     20  15  81 W8        30.31F
RUSSELL        CLEAR     24  21  88 NW12      30.30R WCI  13
$$

KSZ061>065-074>080-084>089-061000-
SOUTHWEST KANSAS

CITY           SKY/WX    TMP DP  RH WIND       PRES   REMARKS
DODGE CITY     CLEAR     23  18  81 NW12      30.32R WCI  12
ELKHART          N/A     21  11  65 W8          N/A
GARDEN CITY    CLEAR     22  16  78 NW8       30.32R
GREAT BEND     CLEAR     25  16  68 NW7       30.32R
LIBERAL        CLEAR     19  12  73 NW8       30.34R
PRATT          CLEAR     23  20  89 NW9       30.31R
$$

KSZ066>073-081>083-090>101-061000-
SOUTHEAST KANSAS

CITY           SKY/WX    TMP DP  RH WIND       PRES   REMARKS
CHANUTE        PTCLDY    33  26  75 W5        30.28R
COFFEYVILLE    PTCLDY    36  24  62 S3        30.29S
HUTCHINSON     CLEAR     28  23  81 NW9       30.30R
MEDICINE LODGE   N/A     27  23  85 N3        30.31R
NEWTON         CLEAR     28  21  74 NW6       30.30S
PARSONS        CLEAR     32  25  75 CALM      30.29R
WICHITA INTL   PTCLDY    32  26  78 NW3       30.30R
WICHITA JABRA  PTCLDY    30  25  81 W6        30.29S
WICHITA MCCONL PTCLDY    32  26  78 NW5       30.29S
WINFIELD       MOCLDY    35  28  75 NW7       30.30S
$$

KSZ007>012-019>026-033>040-048>060-102>105-061000-
NORTHEAST KANSAS

CITY           SKY/WX    TMP DP  RH WIND       PRES   REMARKS
CONCORDIA      CLEAR     27  24  89 W6        30.29R
EMPORIA        PTCLDY    28  23  81 W5        30.26S
LAWRENCE       CLEAR     25  23  92 NW7       30.26R
MANHATTAN      CLEAR     24  21  88 CALM      30.29R
MARYSVILLE     CLEAR     28  27  93 NW3       30.27S
OLATHE IND     CLEAR     31  24  75 W3        30.25R
OLATHE EXE     CLEAR     33  23  66 S5        30.24S
SALINA         CLEAR     28  24  85 NW6       30.31R
TOPEKA BILLARD CLEAR     26  21  81 CALM      30.27S
TOPEKA FORBES  CLEAR     26  21  81 NW9       30.25S
$$




USA.gov is the U.S. government's official web portal to all federal, state and local government web resources and services.